Location: Stanford
(52.2833°N, 2.4333°W)
Time: 20:12:42
(UTC+00:00)

Cosmos 1674 - Pass Details

Date: 22 January 2021
Orbit: 492 x 518 km, 82.5° (Epoch: 27 February)

Event Time Altitude Azimuth Distance (km) Brightness Sun altitude
Rises 17:10:28 0° 200° (SSW) 2,631 7.1 -5.1°
Reaches altitude 10° 17:12:37 10° 204° (SSW) 1,749 6.2 -5.4°
Maximum altitude 17:16:24 56° 284° (WNW) 624 3.5 -5.9°
Drops below altitude 10° 17:20:13 10° 3° (N) 1,762 5.1 -6.4°
Sets 17:22:23 0° 8° (N) 2,653 6.0 -6.7°
